Location: Omaha
(41.2590°N, 95.9380°W)
Time: 21:24:30
(UTC-06:00)

Hubble Space Telescope - Pass Details

Date: 09 October 2017
Orbit: 537 x 541 km, 28.5° (Epoch: 17 December)

Event Time Altitude Azimuth Distance (km) Brightness Sun altitude
Exits shadow 05:53:23 11° 190° (S) 1,745 3.2 -18.8°
Drops below altitude 10° 05:54:12 10° 179° (S) 1,786 3.4 -18.6°
Sets 05:58:15 0° 140° (SE) 2,676 4.8 -17.9°
